User: anonymous   Login
Location: DaVinci Observatory
(43.1080°N, 78.6453°W)
Time: 11:44:56
(UTC-04:00)
Language:

Tiangong 2 - Orbit

View from above orbital plane
View from above orbital plane
View from above satellite
View from above satellite

Ground track
Ground track

The orbit data is extracted from the following two-line orbital elements,

1 41765U 16057A   17295.12766999  .00005712  00000-0  75318-4 0  9998
2 41765  42.7844 320.7577 0002394  20.5817  80.8676 15.59259478 62790
Epoch (UTC): 22 October 2017 03:03:50
Eccentricity: 0.0002394
inclination: 42.7844°
perigee height: 388 km
apogee height: 391 km
right ascension of ascending node: 320.7577°
argument of perigee: 20.5817°
revolutions per day: 15.59259478
mean anomaly at epoch: 80.8676°
orbit number at epoch: 6279

The dashed part of the orbit path shows where the satellite is in the earth's shadow,  

DLR